Zurück zum Katalog

STARLINK-30802

AktivKommunikationVLEO
NORAD 58150·PAYLOAD·🇺🇸 United States

Gestartet Oct 29, 2023 von Vandenberg Space Force Base

Loading…

Nächste Überflüge (nächste 24 Stunden)

TLE

AktuellSource: CelesTrak SupGP

Epoche: Sep 15, 2026, 01:52 UTC

1 58150C 23166A   26258.07826389 -.00030269  00000+0 -97345-3 0  2583
2 58150  53.1579  58.7063 0001182  86.5749 232.4033 15.31714770    15

Verfolge STARLINK-30802 in Echtzeit mit AllMySat

Download on the App Store